Location: Mascot Post Office (historical)
(40.2645°N, 99.5462°W)
Time: 23:19:02
(UTC+00:00)

NOSS 3-4 (C) - Pass Details

Date: 26 October 2020
Orbit: 884 x 1328 km, 63.4° (Epoch: 28 November)

Event Time Altitude Azimuth Distance (km) Brightness Sun altitude
Rises 00:21:34 0° 328° (NNW) 3,722 6.9 -7.9°
Reaches altitude 10° 00:26:06 10° 358° (N) 2,874 5.9 -8.8°
Maximum altitude 00:28:50 12° 22° (NNE) 2,754 5.6 -9.3°
Drops below altitude 10° 00:31:39 10° 46° (NE) 3,004 5.6 -9.9°
Enters shadow 00:32:55 - 54° (NE) 3,218 5.7 -10.1°
